Terug naar catalogus

XIGUANG 1-04

ActiefWetenschapSSO
NORAD 61895·PAYLOAD·🇨🇳 China
Deze satellietnaam is nog niet bevestigd door officiële bronnen.

Gelanceerd Nov 11, 2024 vanaf Jiuquan Satellite Launch Center

Loading…

Volgende Passages (komende 24 uur)

TLE

VersSource: Space-Track

Epoch: Sep 14, 2026, 12:13 UTC

1 61895U 24205B   26257.50953096  .00009251  00000-0  29998-3 0  9998
2 61895  97.4073 335.1206 0010829  80.4273 279.8192 15.32151777102353

Volg XIGUANG 1-04 in realtime met AllMySat

Download on the App Store